Probability
0 0 0 0 0 0 0 0 0 0 0 0 0 0 0 0 0 0 0 0 0 0 0 0 0 0 0 0 1 3 4 4 3 4 4 4 3 3 2 1 0 0 0 0 0 0 0 0 0
0 0 0 0 0 0 0 0 0 0 0 0 0 0 0 0 0 0 0 0 0 0 0 0 0 0 0 1 1 2 4 4 4 4 4 4 4 3 2 1 0 0 0 0 0 0 0 0 0
0 0 0 0 0 0 0 0 0 0 0 0 0 0 0 0 0 0 0 0 0 0 0 0 0 0 1 2 2 2 3 4 5 4 4 4 4 4 2 1 0 0 0 0 0 0 0 0 0
0 0 0 0 0 0 0 0 0 0 0 0 0 0 0 0 0 0 0 0 0 0 0 0 0 1 2 4 4 4 3 3 4 4 4 3 4 3 3 1 0 0 0 0 0 0 0 0 1
0 0 0 0 0 0 0 0 0 0 0 0 0 0 0 0 0 0 0 0 0 0 0 1 1 1 3 5 5 6 5 3 3 4 3 3 3 3 3 2 1 0 0 0 0 0 0 1 2
0 0 0 0 0 0 0 0 0 0 0 0 0 0 0 0 0 0 0 0 0 0 0 1 1 1 2 4 5 6 5 3 3 4 3 3 3 3 3 2 1 0 0 0 0 0 1 2 3
0 0 0 0 0 0 0 0 0 0 0 0 0 0 0 0 0 0 0 0 0 0 0 0 0 0 1 2 3 4 3 3 3 4 4 3 3 3 3 2 1 0 0 0 0 0 1 1 2
0 0 0 0 0 0 0 0 0 0 0 0 0 0 0 0 0 0 0 0 0 0 0 0 0 0 0 1 1 1 1 1 2 3 3 3 3 3 2 1 0 0 0 0 0 0 0 0 1
0 0 0 0 0 0 0 0 0 0 0 0 0 0 0 0 0 0 0 0 0 0 0 0 0 0 0 0 0 0 0 0 1 2 3 3 3 3 1 0 0 0 0 0 0 0 0 0 0
0 0 0 0 0 0 0 0 0 0 0 0 0 0 0 0 0 0 0 0 0 0 0 1 0 0 0 0 0 0 0 0 1 2 3 3 3 2 1 0 0 0 0 0 0 0 0 0 0
0 0 0 0 0 0 0 0 0 0 0 0 0 0 0 0 0 0 0 0 0 0 1 2 1 0 0 0 0 0 0 0 0 1 3 3 3 2 1 0 0 0 0 0 0 0 0 0 0
0 0 0 0 0 0 0 0 0 0 0 0 0 0 0 0 0 0 0 0 0 0 0 1 1 0 0 0 0 0 0 0 0 1 2 3 3 2 1 0 0 0 0 0 0 0 0 0 0
0 0 0 0 0 0 0 0 0 0 0 0 0 0 0 0 0 0 0 0 0 0 0 0 0 0 0 0 0 0 0 0 0 1 2 3 3 2 1 0 0 0 0 0 0 0 0 0 0
0 0 0 0 0 0 0 0 0 0 0 0 0 0 0 0 0 0 0 0 0 0 0 0 0 0 0 0 0 0 0 0 0 1 2 3 3 2 1 0 0 0 0 0 0 0 0 0 0
0 0 0 0 0 0 0 0 0 0 0 0 0 0 0 0 0 0 0 0 0 0 0 0 0 0 0 0 0 0 0 0 0 1 2 3 3 2 1 0 0 0 0 0 0 0 0 0 0
0 0 0 0 0 0 0 0 0 0 0 0 0 0 0 0 0 0 0 0 0 0 0 0 0 0 0 0 0 0 0 0 0 1 2 3 3 2 1 0 0 0 0 0 0 0 0 0 0
0 0 0 0 0 0 0 0 0 0 0 0 0 0 0 0 0 0 0 0 0 0 0 0 0 0 0 0 0 0 0 0 0 1 2 3 3 2 1 0 0 0 0 0 0 0 0 0 0
0 0 0 0 0 0 0 0 0 0 0 0 0 0 0 0 0 0 0 0 0 0 0 0 0 0 0 0 0 0 0 0 0 1 3 3 2 1 0 0 0 0 0 0 0 0 0 0 0
0 0 0 0 0 0 0 0 0 0 0 0 0 0 0 0 0 0 0 0 0 0 0 0 0 0 0 0 0 0 0 0 1 2 2 2 1 0 0 0 0 0 0 0 0 0 0 0 0
0 0 0 0 0 0 0 0 0 0 0 0 0 0 0 0 0 0 0 0 0 0 0 0 0 0 0 0 0 0 0 0 1 2 1 1 0 0 0 0 0 0 0 0 0 0 0 0 0
0 0 0 0 0 0 0 0 0 0 0 0 0 0 0 0 0 0 0 0 0 0 0 0 0 1 1 0 0 0 0 0 1 1 0 0 0 0 0 0 0 0 0 0 0 0 0 0 0
0 0 0 0 0 0 0 0 0 0 0 0 0 0 0 0 0 0 0 0 0 0 0 0 0 1 1 0 0 0 0 0 0 0 0 0 0 0 0 0 0 0 0 0 0 0 0 0 0
0 0 0 0 0 0 0 0 0 0 0 0 0 0 0 0 0 0 0 0 0 0 0 0 0 0 0 0 0 0 0 0 0 0 0 0 0 0 0 0 0 0 0 0 0 0 0 0 0
0 0 0 0 0 0 0 0 0 0 0 0 0 0 0 0 0 0 0 0 0 0 0 0 0 0 0 0 0 0 0 0 0 0 0 0 0 0 0 0 0 0 0 0 0 0 0 0 0
0 0 0 0 0 0 0 0 0 0 0 0 0 0 0 0 0 0 0 0 0 0 0 0 0 0 0 0 0 0 0 0 0 0 0 0 0 0 0 0 0 0 0 0 0 0 0 0 0
0 0 0 0 0 0 0 0 0 0 0 0 0 0 0 0 0 0 0 0 0 0 0 0 0 0 0 0 0 0 0 0 0 0 0 0 0 0 0 0 0 0 0 0 0 0 0 0 0
0 0 0 0 0 0 0 0 0 0 0 0 0 0 0 0 0 0 0 0 0 0 0 0 0 0 0 0 0 0 0 0 0 0 0 0 0 0 0 0 0 0 0 0 0 0 0 0 0
0 0 0 0 0 0 0 0 0 0 0 0 0 0 0 0 0 0 0 0 0 0 0 0 0 0 0 0 0 0 0 0 0 0 0 0 0 0 0 0 0 0 0 0 0 0 0 0 0
0 0 0 0 0 0 0 0 0 0 0 0 0 0 0 0 0 0 0 0 0 0 0 0 0 0 0 0 0 0 0 0 0 0 0 0 0 0 0 0 0 0 0 0 0 0 0 0 0
0 0 0 0 0 0 0 0 0 0 0 0 0 0 0 0 0 0 0 0 0 0 0 0 0 0 0 0 0 0 0 0 0 0 0 0 0 0 0 0 0 0 0 0 0 0 0 0 0
Wind_Speed
7 4 2 4 6 4 2 3 2 1 1 1 1 1 4 3 3 2 0 3 3 4 3 4 6 7 8 7 7 7 7 8 8 9 9 9 9 9 9 9 8 8 9 9 10 11 11 11 11
2 3 5 5 4 1 4 3 3 3 1 1 2 2 2 1 1 2 1 1 3 4 3 3 5 7 7 7 7 7 7 7 8 8 8 8 8 8 8 8 8 8 8 9 9 10 10 10 10
2 4 5 4 3 5 4 2 3 1 0 1 2 2 1 0 0 1 1 3 4 4 3 3 5 7 7 7 7 6 6 7 7 7 8 8 8 7 7 7 7 7 8 8 9 9 10 10 10
3 5 5 3 4 4 3 1 0 1 1 1 2 1 1 1 1 1 3 4 4 4 3 4 6 7 7 7 6 6 6 7 7 7 7 7 7 7 6 6 6 7 7 8 8 8 9 9 10
4 4 3 0 4 3 2 2 1 0 0 0 2 1 1 2 2 4 5 4 4 3 3 3 5 6 6 6 5 5 5 5 6 6 7 7 6 6 6 6 6 6 7 7 7 8 8 8 9
4 4 3 3 4 3 2 2 0 0 0 1 2 1 1 2 2 3 4 3 3 3 3 3 4 5 5 5 5 4 4 4 5 6 6 6 6 6 5 5 6 5 6 7 7 7 8 8 8
4 3 3 3 3 3 2 1 1 1 1 2 2 2 1 1 1 2 3 3 3 3 3 2 2 3 4 4 4 4 4 4 4 5 6 6 6 5 5 5 5 5 5 6 7 7 7 7 7
4 4 2 2 3 4 2 1 0 2 2 0 2 3 2 2 2 3 3 3 3 2 2 2 2 2 2 3 4 4 4 4 4 4 5 5 5 5 5 5 5 5 5 6 6 6 7 7 7
3 3 3 4 5 3 1 1 2 1 1 1 0 1 1 3 5 5 3 2 1 1 1 1 2 2 2 2 3 4 4 4 4 3 5 5 3 3 3 4 5 5 5 5 5 6 7 7 6
3 3 6 3 3 2 0 1 1 1 1 1 1 1 2 4 5 5 3 2 3 2 1 1 1 1 2 2 2 2 2 2 2 2 3 3 2 2 3 4 5 5 5 5 6 7 7 5 3
3 5 3 2 2 1 1 1 1 2 3 4 3 2 3 3 3 4 3 3 3 3 2 1 1 1 1 1 1 1 1 1 2 2 3 3 2 2 2 2 2 3 4 3 4 4 2 2 2
2 2 1 1 1 1 2 1 1 3 5 2 2 3 4 4 5 6 5 4 2 2 2 2 2 1 1 1 1 1 1 1 1 1 2 2 2 2 1 1 1 1 1 2 2 2 2 2 2
2 2 1 1 1 1 1 2 3 5 5 2 1 2 4 5 5 4 3 3 2 3 3 2 3 3 2 2 1 1 1 1 1 1 2 2 2 2 1 1 1 1 1 1 1 2 1 1 1
1 1 2 2 2 1 2 3 2 7 3 1 1 3 4 5 5 3 3 3 4 4 4 3 3 3 2 2 2 1 1 1 1 1 2 2 2 2 2 1 1 1 1 1 1 2 1 1 1
1 1 3 2 2 1 0 5 6 6 1 2 3 4 4 4 4 5 5 5 5 4 4 3 3 2 3 3 3 2 2 2 1 1 2 2 2 2 2 2 1 1 1 1 1 1 1 1 1
2 2 3 3 1 1 2 8 5 3 2 4 5 5 4 5 5 5 5 4 4 4 4 4 3 3 3 3 3 2 2 2 1 1 2 2 2 2 2 2 2 1 1 1 1 1 1 1 0
2 1 3 4 1 0 2 7 6 1 2 5 5 5 5 5 5 5 5 5 4 5 4 4 4 4 4 3 2 2 2 2 2 2 2 2 2 2 2 2 1 2 2 1 1 1 1 1 0
4 3 3 4 2 0 3 9 9 4 3 6 6 6 5 6 8 6 5 5 4 4 4 4 5 5 4 3 2 1 1 1 1 2 2 3 2 2 2 2 2 2 2 1 1 1 1 1 1
3 3 4 4 2 1 6 10 12 7 5 7 7 7 7 8 7 4 4 4 3 3 4 4 4 5 4 3 3 2 2 2 2 2 3 3 3 3 3 2 2 2 3 3 3 2 1 1 1
2 3 5 4 1 1 5 11 10 7 6 6 7 8 8 6 5 4 3 3 3 4 4 5 5 5 5 4 3 2 2 2 2 2 2 3 3 3 3 3 3 3 3 3 3 3 2 1 1
4 5 5 4 4 2 5 10 6 5 4 4 5 6 6 6 6 5 4 4 4 4 5 5 6 5 5 4 2 2 1 1 1 2 2 3 3 3 3 4 3 3 3 4 4 5 4 3 2
6 4 4 2 1 4 1 7 9 4 6 6 6 5 6 6 5 5 4 4 4 5 4 4 4 4 4 4 4 4 4 3 3 2 2 2 3 3 3 3 4 3 3 4 4 4 3 4 3
4 2 2 1 2 3 2 4 11 3 6 7 6 6 6 5 5 5 4 4 4 3 3 3 3 3 3 4 5 5 3 2 1 1 2 2 2 2 2 3 3 3 3 4 4 3 3 3 4
3 4 3 3 2 4 5 5 10 4 6 5 4 5 5 4 4 4 3 2 1 1 2 2 2 2 3 4 4 5 4 3 2 2 2 2 1 2 2 3 3 3 3 3 4 4 5 4 4
3 4 2 4 2 7 2 4 11 7 5 5 6 6 5 4 4 3 2 1 1 1 1 2 3 2 3 3 4 4 4 4 4 4 3 2 2 2 3 3 3 3 3 3 3 3 4 4 5
4 6 7 6 5 5 2 8 10 5 4 4 5 5 4 3 3 3 3 3 2 1 1 2 3 3 3 3 3 3 3 2 2 3 2 3 3 3 3 3 3 3 3 3 3 3 4 4 5
4 4 3 4 1 3 6 7 10 4 4 4 4 4 4 4 4 3 3 2 2 2 2 2 3 2 3 3 3 2 2 2 2 2 2 2 2 2 2 3 3 3 4 4 3 3 4 4 4
3 5 3 4 4 5 6 6 6 5 5 4 5 5 5 4 3 3 2 2 2 2 1 1 2 2 2 2 3 2 2 2 2 1 2 2 2 2 2 3 3 3 3 3 3 3 3 4 5
3 3 3 3 4 5 5 8 5 5 4 3 4 4 5 4 3 3 2 2 1 1 1 1 1 1 1 2 2 2 2 1 1 2 2 2 2 2 2 3 3 3 4 4 4 4 4 5 5
4 5 6 5 6 4 4 9 3 3 3 3 4 4 4 3 3 2 2 1 1 1 1 1 2 2 2 2 2 2 2 2 2 2 2 2 2 2 2 2 3 3 4 4 5 5 5 5 6
Wind_Direction
348 355 41 52 53 52 242 244 232 264 277 345 5 111 138 144 164 188 103 128 115 132 146 150 144 138 134 128 129 126 125 125 121 121 118 112 106 100 96 93 92 91 92 93 92 90 88 88 86
348 13 51 61 93 176 255 245 234 234 231 66 43 54 77 75 38 102 132 162 131 133 131 136 137 140 138 134 127 132 130 126 124 122 120 116 110 105 100 97 93 92 93 95 95 94 93 90 87
19 49 79 82 139 191 223 232 231 290 326 93 63 37 62 85 85 183 208 144 122 120 117 131 134 141 140 136 133 129 132 127 124 125 121 116 110 107 103 101 98 94 94 95 96 96 96 94 89
66 50 60 91 213 221 222 243 257 336 14 59 113 72 339 1 304 194 121 120 115 111 109 125 131 139 138 137 138 131 132 131 125 121 115 110 110 106 102 103 101 98 97 96 95 96 97 98 94
59 79 81 191 241 252 255 264 224 201 291 31 121 138 293 350 24 99 117 123 125 109 100 119 125 132 134 139 140 139 130 138 129 120 113 109 106 108 105 100 100 100 101 101 99 96 98 96 96
63 73 116 219 243 268 277 282 185 217 225 111 129 146 243 17 67 110 120 124 126 120 101 106 114 119 124 127 124 128 121 121 129 125 118 113 105 101 100 98 95 97 102 103 100 97 96 95 94
108 111 176 205 232 259 266 268 175 208 224 219 170 153 255 2 80 116 114 109 109 109 99 91 102 106 110 110 106 102 103 95 109 118 114 107 105 99 91 87 93 92 97 103 100 95 96 95 93
124 117 165 207 213 246 281 329 263 188 220 200 136 164 228 222 136 107 96 91 99 95 95 91 89 91 93 97 97 91 93 84 85 101 98 95 96 93 86 75 87 89 90 94 96 93 95 92 89
93 103 200 207 202 239 304 342 330 351 108 64 90 212 253 130 124 109 97 81 114 107 88 91 96 93 91 92 91 90 88 79 73 94 96 91 80 77 76 71 78 84 88 90 92 92 89 83 81
108 178 215 203 195 203 250 269 294 21 352 305 314 1 83 123 134 136 148 167 187 186 173 122 118 111 104 99 90 83 80 73 66 87 100 94 87 82 81 72 69 75 82 85 93 91 84 74 68
157 200 211 224 217 192 216 290 287 168 249 238 232 207 143 141 157 178 192 190 206 196 181 162 154 137 131 120 111 94 88 80 69 93 103 101 90 80 75 74 58 62 71 71 82 79 70 78 88
166 241 211 245 216 197 225 237 267 215 237 266 227 173 162 178 196 205 207 202 201 188 197 186 174 165 160 130 126 124 119 111 97 107 119 117 110 96 91 91 85 75 76 86 81 90 73 69 81
199 258 279 262 285 240 236 242 251 262 270 308 27 142 188 199 212 222 217 201 196 210 213 206 188 183 175 155 157 142 152 145 140 135 133 128 131 135 125 112 100 90 87 101 99 99 82 66 68
204 240 291 293 270 252 227 272 257 267 273 283 235 223 221 218 221 224 220 207 211 219 220 211 204 196 183 176 175 170 166 158 146 162 159 147 144 147 145 140 133 128 132 134 131 128 117 97 83
86 359 325 293 245 246 150 289 237 251 271 274 258 246 241 239 232 227 226 218 211 216 215 207 204 194 192 186 181 172 172 154 153 179 163 156 152 155 162 160 159 164 142 120 102 97 92 88 70
56 40 299 296 278 256 150 266 266 238 197 254 259 256 254 253 242 239 233 229 219 208 206 207 198 191 197 193 185 176 171 161 175 188 163 160 155 161 164 169 172 163 141 135 133 124 106 111 92
38 247 254 296 295 166 189 260 278 265 207 256 262 258 258 265 263 249 234 224 218 210 203 200 198 193 196 192 181 181 171 172 190 181 168 174 170 168 168 181 176 155 147 153 161 136 136 167 217
214 221 246 256 290 200 238 262 280 279 245 257 264 262 259 259 259 252 236 226 216 212 207 201 197 193 185 175 163 168 166 183 197 184 182 179 179 176 171 173 170 161 156 163 162 159 132 169 204
166 195 251 260 279 244 252 268 277 281 265 266 268 265 263 259 262 257 239 228 213 208 204 201 200 195 174 173 177 181 204 207 204 191 189 187 187 184 177 178 175 176 179 184 175 164 153 178 141
190 234 262 286 319 254 284 279 272 263 250 249 255 258 259 267 278 269 250 222 214 213 211 206 205 196 186 184 181 178 178 205 201 191 191 192 190 189 185 184 190 188 182 182 183 172 167 190 161
222 218 236 263 329 335 320 298 277 275 257 263 257 255 258 249 256 260 250 233 221 218 211 207 201 193 188 173 147 123 119 121 178 198 205 208 197 193 191 189 190 192 188 195 197 190 185 197 200
238 219 214 235 294 293 3 295 290 284 291 280 272 268 265 260 253 251 244 243 229 224 211 204 195 184 179 168 172 178 190 202 209 205 210 216 206 204 200 193 194 196 199 201 205 199 200 191 200
207 137 160 186 190 288 259 248 283 306 284 277 267 264 266 262 252 251 245 239 235 218 200 194 181 175 176 178 182 188 200 203 188 178 196 212 219 215 211 201 199 205 208 210 210 206 206 208 202
146 86 65 55 84 270 231 206 278 252 251 282 285 275 274 274 265 261 259 248 246 214 182 163 165 181 183 182 184 190 192 183 182 210 213 216 222 227 222 210 209 214 215 215 219 213 211 218 215
131 114 34 350 334 250 202 213 254 254 251 255 276 288 287 269 257 262 265 259 257 238 183 171 176 193 186 182 190 196 198 194 203 210 216 218 219 230 228 219 214 218 222 220 216 220 223 221 222
188 164 172 201 230 272 226 233 255 263 277 274 276 284 296 284 269 266 257 242 236 227 193 189 191 199 191 189 200 203 198 198 215 218 218 221 227 232 226 221 223 219 215 218 215 223 232 228 230
158 197 181 144 151 275 260 271 292 297 306 310 309 311 303 296 288 282 275 259 245 231 217 204 199 202 198 197 197 196 195 203 217 221 217 218 231 236 229 227 230 227 219 218 215 225 229 231 233
170 156 134 157 189 250 272 259 259 289 292 309 312 306 300 301 301 301 295 283 268 244 233 208 199 210 206 195 199 204 206 207 207 211 227 226 230 227 222 232 237 234 228 223 220 230 231 231 238
156 166 173 165 183 195 255 262 228 231 244 267 287 301 302 297 293 294 301 303 298 302 209 209 212 208 214 210 208 204 215 212 205 225 235 231 234 227 225 232 238 240 234 227 226 231 229 234 242
194 191 172 186 226 217 234 266 270 234 245 251 278 303 311 315 319 313 302 305 291 257 241 224 228 227 228 225 216 207 211 201 209 233 241 233 228 227 230 232 238 243 240 231 229 233 231 233 238